Tracking 20942 objects as of 10-Jul-2020
HD Live streaming from Space Station
objects crossing your sky now

COSMOS 540

Track COSMOS 540 now!
10-day predictions
COSMOS 540 is classified as:


NORAD ID: 6323
Int'l Code: 1972-104A
Perigee: 763.6 km
Apogee: 791.1 km
Inclination: 74.1 °
Period: 100.2 minutes
Semi major axis: 7148 km
RCS: 2.1717 m2 (large)
Launch date: December 25, 1972
Source: Commonwealth of Independent States (former USSR) (CIS)
Launch site: PLESETSK MISSILE AND SPACE COMPLEX (PKMTR)
aabbcc
Your satellite tracking list
Your tracking list is empty




NASA's NSSDC Master Catalog

Two Line Element Set (TLE):
1  6323U 72104A   20191.21541535 +.00000019 +00000-0 +15350-4 0  9995
2  6323 074.0811 116.0364 0019198 276.6297 083.2671 14.36465487487492
Source of the keplerian elements: AFSPC